Besoin d'aide ?
01 84 16 33 55
IDENTIFIEZ-VOUS
 
 

Localcommercial > Liste des adresses recherchées

 
AdresseCode PostalVilleDate  
2 avenue du marechal foch 30700 uzes 11/04/2024 - 18:04:39
rue du marechal koenig 67210 obernai 11/04/2024 - 18:04:31
93 rue generale de gaulle 56300 pontivy 11/04/2024 - 18:04:23
4 rue des gallois 22000 saint-brieuc 11/04/2024 - 18:04:15
20 rue de paris 95420 magny-en-vexin 11/04/2024 - 18:04:59
273 route de la plagne 74110 morzine 11/04/2024 - 18:04:51
127 rue nationale 85500 les-herbiers 11/04/2024 - 18:04:43
rue rifle rafle 13100 aix-en-provence 11/04/2024 - 18:04:35
9 rue pasteur 65200 bagneres-de-bigorre 11/04/2024 - 18:04:23
1107 avenue de provence 83600 frejus 11/04/2024 - 18:04:16
13 rue vallon 74200 thonon-les-bains 11/04/2024 - 18:04:14
5 rue dugommier 66650 banyuls-sur-mer 11/04/2024 - 18:04:55
40 route de bordeaux 33830 belin-beliet 11/04/2024 - 18:04:47
345 avenue d eysines 33110 le-bouscat 11/04/2024 - 18:04:39
10 rue de la liberation 35310 mordelles 11/04/2024 - 18:04:31
residence du port 83990 saint-tropez 11/04/2024 - 18:04:23
30 chemin de loustaounaou 64100 bayonne 11/04/2024 - 18:04:15
454 avenue de fronton 31200 toulouse 11/04/2024 - 18:04:07
rue de la liberation 27210 beuzeville 11/04/2024 - 18:04:44
25 place emile favre 74130 bonneville 11/04/2024 - 18:04:39
51 rue de presles 93300 aubervilliers 11/04/2024 - 18:04:27
fontaine du temple 75003 paris-3eme-arrondissement 11/04/2024 - 18:04:24
39 grande rue 07300 tournon-sur-rhone 11/04/2024 - 18:04:23
11 avenue plantey 33680 lacanau-ocean 11/04/2024 - 18:04:15
34 rue vieille du temple 75004 paris 11/04/2024 - 18:04:59
14 rue du grand faubourg 28000 chartres 11/04/2024 - 18:04:51
24 rue de montreuil 78000 versailles 11/04/2024 - 18:04:39
33 rue de dunkerque 59280 armentieres 11/04/2024 - 18:04:31
32 rue chapsal 94340 joinville-le-pont 11/04/2024 - 18:04:15
29 avenue du port 13230 port-saint-louis 11/04/2024 - 18:04:07
58 rue st ladre 57950 moulins-les-metz 11/04/2024 - 18:04:03
52 avenue du general leclerc 64000 pau 11/04/2024 - 18:04:55
30 rue chapsal 94340 joinville-le-pont 11/04/2024 - 18:04:51
82 avenue saint exupery 31400 toulouse 11/04/2024 - 18:04:39
12 rue francois xavier bichat 39100 dole 11/04/2024 - 18:04:25
80 rue francois mitterand 58000 nevers 11/04/2024 - 18:04:15
59 rue du general leclerc 88190 golbey 11/04/2024 - 18:04:59
120 rond point de la foux 83580 gassin 11/04/2024 - 18:04:51
1 rue fernand pelloutier 92800 puteaux 11/04/2024 - 18:04:43
39 boulevard des dames 13002 marseille 11/04/2024 - 18:04:35
place de venosc 38860 les-2-alpes 11/04/2024 - 18:04:12
43 rue amiral gourdon 45300 pithiviers 11/04/2024 - 18:04:11
34 36 rue auguste perret 94800 villejuif 11/04/2024 - 18:04:03
3 rue robert de la croix 56100 lorient 11/04/2024 - 18:04:55
7 rue baudin 93310 le-pres-saint-gervais 11/04/2024 - 18:04:43
1 rue alfred de vigny 86100 chatellerault 11/04/2024 - 18:04:11
21 chemin de raubo faisses 34810 pomerols 11/04/2024 - 18:04:03
51 rue de la gazelle 43000 le-puy-en-velay 11/04/2024 - 18:04:39
16 place navarin 85100 les-sables-d-olonne 11/04/2024 - 18:04:35
6 rue des freres juchereau 61190 tourouvre 11/04/2024 - 18:04:27
81 grande rue charles de gaulle 94130 nogent-sur-marne 11/04/2024 - 18:04:11
2 rue du petit saint jean 34000 montpellier 11/04/2024 - 18:04:51
15 av de la liberation 42400 saint-charmond 11/04/2024 - 18:04:35
108 rue du chateau de la duchere 69009 lyon 11/04/2024 - 18:04:19
20 avenue louis lajarrige 44500 la-baule-escoublac 11/04/2024 - 18:04:47
84 rue gallieni 92100 boulogne-billancourt 11/04/2024 - 18:04:38
immeuble le roc blanc bonascre 09110 ax-les-thermes 11/04/2024 - 18:04:35
19 avenue des flamants roses 11210 port-la-nouvelle 11/04/2024 - 18:04:23
17 rue du general leclerc 93110 rosny-sous-bois 11/04/2024 - 18:04:47
1 rue du chateau 35140 saint-aubin-du-cormier 11/04/2024 - 18:04:43
8 avenue de la liberation 87570 rilhac-rancon 11/04/2024 - 18:04:28
avenue du char verdun 83160 la-valette-du-var 11/04/2024 - 18:04:23
2 allee des rousselets 77400 thorigny-sur-marne 11/04/2024 - 18:04:19
place paul doumer 53200 chateau-gontier-53200 11/04/2024 - 18:04:08
107 cours d alsace et lorraine 33000 bordeaux 11/04/2024 - 18:04:55
18 rue de la grande fontaine 33330 saint-emilion 11/04/2024 - 18:04:43
43 avenue du docteur bernadac 09300 lavelanet 11/04/2024 - 18:04:39
2 rue de la pichardiere 45170 neuville-aux-bois 11/04/2024 - 18:04:31
2 rue maurice coquelin 94400 vitry-sur-seine 11/04/2024 - 18:04:19
16 rue des vieux moulins 74160 saint-julien-en-genevois 11/04/2024 - 18:04:03
centre commercial du parc de l aulnay 77360 vaires-sur-marne 11/04/2024 - 18:04:51
12 rue de sevigne 75003 paris 11/04/2024 - 18:04:01
3 rue de la bidassoa 75020 paris 11/04/2024 - 18:04:33
18 quai saint pierre 06400 cannes 11/04/2024 - 18:04:23
1 bis rue de mon desert 54000 nancy 11/04/2024 - 18:04:10
rue saint yves 29290 saint-renan 11/04/2024 - 18:04:42
zone artisanale 66650 banyuls-sur-mer 11/04/2024 - 18:04:24
70 avenue de la marne 92600 asnieres-sur-seine 11/04/2024 - 18:04:12
grande rue 74140 yvoire 11/04/2024 - 17:04:46
zac maison neuve 91220 bretigny-sur-orge 11/04/2024 - 17:04:45
55 rue reaumur 75002 paris 11/04/2024 - 17:04:24
38 rue de lancry 17 09 30 09 2014 paris 11/04/2024 - 17:04:30
37 rue jean jaures 17 09 2014 limoges 11/04/2024 - 17:04:27
534 avenue du president john kennedy 83140 six-fours-les-plages 11/04/2024 - 17:04:20
89 rue de la grotte 65100 lourdes 11/04/2024 - 17:04:55
380 rue de menin 18 09 02 10 2014 marcq-en-baroeul 11/04/2024 - 17:04:34
30 rue du docteur blanche 75016 paris-16e-arrondissement 11/04/2024 - 17:04:21
61 rue de l argoat 22210 plumieux 11/04/2024 - 17:04:51
42 rue des boizerts 95400 cormeilles-en-parisis 11/04/2024 - 17:04:20
56 rue francois 1er 75008 paris 11/04/2024 - 17:04:15
203 route des camoins 18 09 07 10 2014 marseille-11eme-arrondissement 11/04/2024 - 17:04:31
20 rue gramme 75015 paris 11/04/2024 - 17:04:15
145 avenue de malakoff 75116 paris 11/04/2024 - 16:04:27
72 cours de vincennes 75012 paris 11/04/2024 - 16:04:00
76 route de bolbec 76210 beuzeville-la-grenier 11/04/2024 - 16:04:29
343 rue des pyrenees 75020 paris 11/04/2024 - 16:04:14
43 rue andre bonnenfant 78100 saint-germain-en-laye 11/04/2024 - 16:04:54
8 rue armand carrel 75019 paris 11/04/2024 - 16:04:29
7 rue des alizes 30133 les-angles-30 11/04/2024 - 16:04:57
4 passage alexandre moret 77600 bussy-saint-georges 11/04/2024 - 16:04:31

1 2 3 4 5 6 7 8 9 10 11 12 13 14 15 16 17 18 19 20 21 22 23 24 25 26 27 28 29 30 31 32 33 34 35 36 37 38 39 40 41 42 43 44 45 46 47 48 49 50 51 52 53 54 55 56 57 58 59 60 61 62 63 64 65 66 67 68 69 70 71 72 73 74 75 76 77 78 79 80 81 82 83 84 85 86 87 88 89 90 91 92 93 94 95 96 97 98 99 100 101 102 103 104 105 106 107 108 109 110 111 112 113 114 115 116 117 118 119 120 121 122 123 124 125 126 127 128 129 130 131 132 133 134 135 136 137 138 139 140 141 142 143 144 145 146 147 148 149 150 151 152 153 154 155 156 157 158 159 160 161 162 163 164 165 166 167 168 169 170

 
 
 
 
Déjà membre localcommercial.net ?
  Mot de passe oublié ?
 
Inscrivez vous !
Ce numéro n'est pas valide.
Cette adresse email existe déjà.
La confirmation du mot de passe est différente.